Regional Weather Roundup
Issued by NWS Northern Indiana

Home | Current Version | Previous Version | Graphics & Text | Print | Product List | Glossary On
Versions: 1 2 3 4 5 6 7 8 9 10 11 12 13 14 15 16 17 18 19 20 21 22 23 24 25 26 27 28 29 30 31 32 33 34 35 36 37 38 39 40 41 42 43 44 45 46 47 48 49 50
882
ASUS43 KIWX 230610
RWRIWX

KIWX WEATHER ROUNDUP
NATIONAL WEATHER SERVICE NORTHERN INDIANA
200 AM EDT TUE MAY 23 2017

NOTE: "FAIR" INDICATES FEW OR NO CLOUDS BELOW 12,000 FEET WITH NO
SIGNIFICANT WEATHER AND/OR OBSTRUCTIONS TO VISIBILITY.

* THESE STATIONS ARE NOT UNDER NWS QUALITY CONTROL. THEY ALSO MAY NOT
  REPORT WEATHER SUCH AS PRECIPITATION OR FOG.

INZ001>027-230700-
NORTHERN INDIANA

CITY           SKY/WX    TMP DP  RH WIND       PRES   REMARKS
GARY*          CLOUDY    62  52  69 S6        29.90F
VALPARAISO     MOCLDY    61  52  72 SW10      29.92F
6HR MIN TEMP:  61; 6HR MAX TEMP:  70;

MICHIGAN CITY* CLOUDY    59  50  72 S6        29.91F
LAPORTE*       CLOUDY    59  52  77 SW5       29.91F
6HR MIN TEMP:  59; 6HR MAX TEMP:  68;

KNOX*          CLOUDY    59  43  55 SW6       29.92S
SOUTH BEND     MOCLDY    60  51  72 SW5       29.92F
6HR MIN TEMP:  60; 6HR MAX TEMP:  68;

GOSHEN         CLOUDY    60  48  64 S6        29.92F
6HR MIN TEMP:  60; 6HR MAX TEMP:  67;

MONTICELLO*    CLOUDY    60  53  77 CALM      29.92F
6HR MIN TEMP:  60; 6HR MAX TEMP:  68;

LOGANSPORT*    CLOUDY    59  52  77 CALM      29.94F
ROCHESTER*     CLOUDY    63  50  63 SW3       29.93F
WARSAW*        CLOUDY    59  48  67 CALM      29.93F
ANGOLA*        MOCLDY    59  50  72 SW5       29.93F
FORT WAYNE     CLOUDY    57  49  74 S6        29.95F
6HR MIN TEMP:  57; 6HR MAX TEMP:  67;

HUNTINGTON*    CLOUDY    59  48  66 S5        29.94F
6HR MIN TEMP:  55; 6HR MAX TEMP:  66;

PERU/GRISSOM   CLOUDY    58  53  84 S6        29.92F
6HR MIN TEMP:  58; 6HR MAX TEMP:  66;

MARION*        PTCLDY    55  50  82 S5        29.96F

$$
INZ028>050-230700-
CENTRAL INDIANA

CITY           SKY/WX    TMP DP  RH WIND       PRES   REMARKS
LAFAYETTE      CLOUDY    58  53  84 CALM      29.93F
6HR MIN TEMP:  57; 6HR MAX TEMP:  68;

KOKOMO*        CLOUDY    59  51  75 S7        29.95F
6HR MIN TEMP:  58; 6HR MAX TEMP:  67;

MUNCIE*        PTCLDY    61  48  62 S7        29.96F
6HR MIN TEMP:  60; 6HR MAX TEMP:  70;

INDIANAPOLIS   CLOUDY    59  48  67 SE6       29.95F
6HR MIN TEMP:  59; 6HR MAX TEMP:  68;


$$
MIZ043>046-050>051-056>058-064>065-071>073-077>080-230700-
SOUTHWEST LOWER MICHIGAN

CITY           SKY/WX    TMP DP  RH WIND       PRES   REMARKS
BATTLE CREEK   CLOUDY    60  50  69 S9        29.92S
6HR MIN TEMP:  60; 6HR MAX TEMP:  66;

BENTON HARBOR  CLOUDY    60  50  69 SW5       29.89F
6HR MIN TEMP:  60; 6HR MAX TEMP:  71;

COLDWATER*     CLOUDY    58  50  73 CALM      29.93F
6HR MIN TEMP:  58; 6HR MAX TEMP:  66;

HILLSDALE*     CLEAR     54  46  76 S6        29.93F
HOLLAND        CLOUDY    59  52  77 SW10      29.89F
6HR MIN TEMP:  59; 6HR MAX TEMP:  67; 6HR PCP: TRACE;

GRAND RAPIDS   CLOUDY    62  52  69 SW14      29.88F
6HR MIN TEMP:  61; 6HR MAX TEMP:  66;

KALAMAZOO      CLOUDY    60  48  64 SW6       29.91F
6HR MIN TEMP:  59; 6HR MAX TEMP:  67;

STURGIS*       CLOUDY    58  51  76 S6        29.92F
6HR MIN TEMP:  58; 6HR MAX TEMP:  65;

THREE RIVERS*  CLOUDY    60  50  70 SW3       29.92F
6HR MIN TEMP:  60; 6HR MAX TEMP:  67;


$$
OHZ001>008-015>018-024>025-230700-
NORTHWEST OHIO

CITY           SKY/WX    TMP DP  RH WIND       PRES   REMARKS
WAUSEON*       MOCLDY    55  48  76 S5        29.94F
DEFIANCE       CLOUDY    53  47  79 S3        29.95F
6HR MIN TEMP:  53; 6HR MAX TEMP:  67;

FINDLAY        CLOUDY    56  47  71 S7        29.96F
6HR MIN TEMP:  55; 6HR MAX TEMP:  68;

TOLEDO EXPRESS CLEAR     54  49  83 S5        29.94F
6HR MIN TEMP:  52; 6HR MAX TEMP:  68;

TOLEDO METCALF CLOUDY    55  50  83 S7        29.96F
6HR MIN TEMP:  54; 6HR MAX TEMP:  69;

LIMA           CLOUDY    55  49  80 S7        29.97F
6HR MIN TEMP:  54; 6HR MAX TEMP:  67;


$$
AND FOR LAKE MICHIGAN COASTAL AND OPEN LAKE BUOY OBSERVATIONS

STATION/POSITION TEMP    WIND        PRES    VSBY  WAVE
                 AIR SEA DIR/SP/G                  HT/PER
                 (F)     (DEG/KT/KT) (MB)    (MI)  (FT/S)
CALUMET HARBOR    61     200/ 11/ 14 1011.5F
MICHIGAN CITY     62     190/ 11/ 12   N/A
BURNS HARBOR      62     210/ 13/ 17 1012.9F
SOUTH LAKE BUOY   50 45  220/ 10/ 12 1011.6          1/ 3
4 MI NW BRIDGMAN  56 54  190/  6/  6 1012.5          2/ 4
MICHIGAN CITY     58 53  210/ 10/ 12   N/A           2/ 3

$$
&&




USA.gov is the U.S. government's official web portal to all federal, state and local government web resources and services.